| time (UTC) | temp F | wind direction | speed MPH | gust MPH | rain 1hr in | rain 24hr in | rain mn in | humidity % | barometer mb |
| 20260508060205 | 49 | 186 | 5.0 | 11.0 | 0.00 | 0.00 | 0.00 | 86 | 1012.2 |
| 20260508055705 | 49 | 250 | 5.0 | 11.0 | 0.00 | 0.00 | 0.00 | 86 | 1012.1 |
| 20260508055206 | 49 | 241 | 4.0 | 9.0 | 0.00 | 0.00 | 0.00 | 86 | 1012.0 |
| 20260508054705 | 49 | 235 | 5.0 | 11.0 | 0.00 | 0.00 | 0.00 | 86 | 1012.0 |
| 20260508054207 | 49 | 232 | 5.0 | 11.0 | 0.00 | 0.00 | 0.00 | 86 | 1011.9 |
| 20260508053705 | 49 | 236 | 5.0 | 11.0 | 0.00 | 0.00 | 0.00 | 86 | 1011.8 |
| 20260508053205 | 48 | 211 | 5.0 | 10.0 | 0.00 | 0.00 | 0.00 | 86 | 1011.7 |
| 20260508052706 | 48 | 198 | 5.0 | 11.0 | 0.00 | 0.00 | 0.00 | 86 | 1011.7 |
| 20260508052206 | 48 | 204 | 5.0 | 11.0 | 0.00 | 0.00 | 0.00 | 86 | 1011.6 |
| 20260508051705 | 48 | 209 | 5.0 | 11.0 | 0.00 | 0.00 | 0.00 | 86 | 1011.6 |
| 20260508050205 | 48 | 223 | 6.0 | 12.0 | 0.00 | 0.00 | 0.00 | 86 | 1011.5 |
| 20260508045705 | 48 | 215 | 6.0 | 12.0 | 0.00 | 0.00 | 0.00 | 86 | 1011.6 |
| 20260508045206 | 48 | 212 | 5.0 | 11.0 | 0.00 | 0.00 | 0.00 | 86 | 1011.5 |
| 20260508044705 | 48 | 189 | 5.0 | 12.0 | 0.00 | 0.00 | 0.00 | 86 | 1011.5 |
| 20260508044205 | 48 | 215 | 6.0 | 13.0 | 0.00 | 0.00 | 0.00 | 86 | 1011.4 |
| 20260508043705 | 48 | 225 | 7.0 | 13.0 | 0.00 | 0.00 | 0.00 | 86 | 1011.4 |
| 20260508043206 | 48 | 183 | 7.0 | 13.0 | 0.00 | 0.00 | 0.00 | 86 | 1011.3 |
| 20260508042205 | 48 | 205 | 7.0 | 14.0 | 0.00 | 0.00 | 0.00 | 85 | 1011.2 |
| 20260508041705 | 48 | 211 | 7.0 | 14.0 | 0.00 | 0.00 | 0.00 | 85 | 1011.1 |
| 20260508041205 | 48 | 175 | 7.0 | 13.0 | 0.00 | 0.00 | 0.00 | 85 | 1011.1 |
| 20260508040707 | 48 | 201 | 6.0 | 13.0 | 0.00 | 0.00 | 0.00 | 85 | 1011.1 |
| 20260508040205 | 48 | 224 | 5.0 | 12.0 | 0.00 | 0.00 | 0.00 | 85 | 1011.1 |
| 20260508035705 | 48 | 247 | 5.0 | 12.0 | 0.00 | 0.00 | 0.00 | 85 | 1011.0 |
| 20260508034705 | 48 | 204 | 5.0 | 10.0 | 0.00 | 0.00 | 0.00 | 84 | 1010.9 |
| 20260508034206 | 48 | 223 | 4.0 | 10.0 | 0.00 | 0.00 | 0.00 | 84 | 1010.9 |
| 20260508033705 | 48 | 204 | 4.0 | 9.0 | 0.00 | 0.00 | 0.00 | 84 | 1011.0 |
| 20260508033205 | 48 | 219 | 4.0 | 11.0 | 0.00 | 0.00 | 0.00 | 84 | 1011.0 |
| 20260508032205 | 47 | 248 | 5.0 | 10.0 | 0.00 | 0.00 | 0.00 | 84 | 1011.0 |
| 20260508031705 | 47 | 199 | 5.0 | 10.0 | 0.00 | 0.00 | 0.00 | 84 | 1011.0 |
| 20260508031204 | 47 | 212 | 4.0 | 9.0 | 0.00 | 0.00 | 0.00 | 83 | 1011.0 |
| 20260508030705 | 47 | 214 | 4.0 | 9.0 | 0.00 | 0.00 | 0.00 | 83 | 1011.0 |
| 20260508030205 | 47 | 233 | 3.0 | 9.0 | 0.00 | 0.00 | 0.00 | 82 | 1011.0 |
| 20260508025705 | 47 | 202 | 4.0 | 8.0 | 0.00 | 0.00 | 0.00 | 82 | 1011.0 |
| 20260508025205 | 47 | 217 | 4.0 | 12.0 | 0.00 | 0.00 | 0.00 | 82 | 1010.9 |
| 20260508024705 | 47 | 222 | 4.0 | 12.0 | 0.00 | 0.00 | 0.00 | 82 | 1011.0 |
| 20260508022706 | 48 | 200 | 4.0 | 10.0 | 0.00 | 0.00 | 0.00 | 81 | 1010.9 |
| 20260508022206 | 48 | 192 | 4.0 | 10.0 | 0.00 | 0.00 | 0.00 | 81 | 1010.9 |
| 20260508021705 | 48 | 190 | 4.0 | 10.0 | 0.00 | 0.00 | 0.00 | 81 | 1010.9 |
| 20260508021205 | 48 | 160 | 5.0 | 11.0 | 0.00 | 0.00 | 0.00 | 80 | 1010.9 |
| 20260508020705 | 48 | 224 | 5.0 | 11.0 | 0.00 | 0.00 | 0.00 | 81 | 1010.9 |
| 20260508020205 | 48 | 202 | 5.0 | 11.0 | 0.00 | 0.00 | 0.00 | 80 | 1010.8 |
| 20260508015705 | 48 | 196 | 5.0 | 12.0 | 0.00 | 0.00 | 0.00 | 80 | 1010.8 |
| 20260508015205 | 48 | 232 | 5.0 | 12.0 | 0.00 | 0.00 | 0.00 | 80 | 1010.9 |
| 20260508014705 | 48 | 205 | 5.0 | 10.0 | 0.00 | 0.00 | 0.00 | 80 | 1010.9 |
| 20260508014205 | 48 | 177 | 5.0 | 11.0 | 0.00 | 0.00 | 0.00 | 80 | 1010.9 |
| 20260508013209 | 48 | 220 | 7.0 | 16.0 | 0.00 | 0.00 | 0.00 | 80 | 1011.0 |
| 20260508012705 | 48 | 230 | 7.0 | 16.0 | 0.00 | 0.00 | 0.00 | 80 | 1010.9 |
| 20260508012206 | 48 | 180 | 7.0 | 16.0 | 0.00 | 0.00 | 0.00 | 80 | 1010.8 |
| 20260508011705 | 48 | 211 | 7.0 | 14.0 | 0.00 | 0.00 | 0.00 | 81 | 1010.8 |
| 20260508011205 | 47 | 222 | 6.0 | 11.0 | 0.00 | 0.00 | 0.00 | 81 | 1010.9 |
| 20260508010705 | 47 | 224 | 5.0 | 9.0 | 0.00 | 0.00 | 0.00 | 81 | 1010.8 |
| 20260508010205 | 47 | 214 | 5.0 | 11.0 | 0.00 | 0.00 | 0.00 | 82 | 1010.8 |
| 20260508005705 | 47 | 223 | 6.0 | 11.0 | 0.00 | 0.00 | 0.00 | 82 | 1010.9 |
| 20260508004705 | 47 | 178 | 4.0 | 9.0 | 0.00 | 0.00 | 0.00 | 83 | 1010.9 |
| 20260508004205 | 47 | 217 | 3.0 | 7.0 | 0.00 | 0.00 | 0.00 | 83 | 1010.9 |
| 20260508003705 | 46 | 228 | 2.0 | 6.0 | 0.00 | 0.00 | 0.00 | 83 | 1010.9 |
| 20260508003206 | 46 | 240 | 2.0 | 7.0 | 0.00 | 0.00 | 0.00 | 83 | 1010.9 |
| 20260508002705 | 47 | 220 | 3.0 | 7.0 | 0.00 | 0.00 | 0.00 | 83 | 1010.9 |
| 20260508002225 | 47 | 219 | 3.0 | 9.0 | 0.00 | 0.00 | 0.00 | 83 | 1010.9 |
| 20260508001708 | 47 | 241 | 3.0 | 9.0 | 0.00 | 0.00 | 0.00 | 84 | 1010.9 |
| 20260508001205 | 47 | 259 | 3.0 | 7.0 | 0.00 | 0.00 | 0.00 | 84 | 1011.0 |
| 20260508000708 | 47 | 243 | 3.0 | 8.0 | 0.00 | 0.00 | 0.00 | 84 | 1010.9 |
| 20260508000205 | 47 | 246 | 4.0 | 10.0 | 0.00 | 0.00 | 0.00 | 84 | 1010.9 |
| 20260507235705 | 46 | 255 | 4.0 | 10.0 | 0.00 | 0.00 | 0.00 | 85 | 1010.9 |
| 20260507235205 | 46 | 237 | 4.0 | 10.0 | 0.00 | 0.00 | 0.00 | 85 | 1010.9 |
| 20260507234709 | 46 | 242 | 4.0 | 9.0 | 0.00 | 0.00 | 0.00 | 85 | 1010.8 |
| 20260507234205 | 45 | 262 | 2.0 | 5.0 | 0.00 | 0.00 | 0.00 | 84 | 1010.9 |
| 20260507233710 | 45 | 229 | 1.0 | 5.0 | 0.00 | 0.00 | 0.00 | 83 | 1010.8 |
| 20260507233206 | 46 | 219 | 1.0 | 4.0 | 0.00 | 0.00 | 0.00 | 83 | 1010.9 |
| 20260507232705 | 46 | 234 | 2.0 | 4.0 | 0.00 | 0.00 | 0.00 | 82 | 1010.9 |
| 20260507232206 | 46 | 238 | 1.0 | 3.0 | 0.00 | 0.00 | 0.00 | 82 | 1011.0 |
| 20260507231705 | 46 | 233 | 1.0 | 2.0 | 0.00 | 0.00 | 0.00 | 82 | 1010.9 |
| 20260507231205 | 46 | 248 | 0.0 | 2.0 | 0.00 | 0.00 | 0.00 | 81 | 1010.9 |
| 20260507230704 | 46 | 248 | 0.0 | 2.0 | 0.00 | 0.00 | 0.00 | 81 | 1010.9 |
| 20260507230229 | 46 | 248 | 0.0 | 2.0 | 0.00 | 0.00 | 0.00 | 81 | 1010.9 |
| 20260507225706 | 47 | 212 | 0.0 | 2.0 | 0.00 | 0.00 | 0.00 | 81 | 1010.9 |
| 20260507225207 | 47 | 212 | 0.0 | 3.0 | 0.00 | 0.00 | 0.00 | 81 | 1010.9 |
| 20260507224705 | 47 | 212 | 1.0 | 4.0 | 0.00 | 0.00 | 0.00 | 80 | 1010.9 |
| 20260507224205 | 47 | 212 | 1.0 | 7.0 | 0.00 | 0.00 | 0.00 | 80 | 1010.8 |
| 20260507223705 | 47 | 244 | 2.0 | 9.0 | 0.00 | 0.00 | 0.00 | 80 | 1010.8 |
| 20260507222705 | 48 | 230 | 3.0 | 9.0 | 0.00 | 0.00 | 0.00 | 80 | 1010.9 |
| 20260507222205 | 48 | 232 | 3.0 | 8.0 | 0.00 | 0.00 | 0.00 | 80 | 1010.8 |
| 20260507221727 | 48 | 250 | 3.0 | 10.0 | 0.00 | 0.00 | 0.00 | 80 | 1010.8 |
| 20260507221205 | 48 | 226 | 3.0 | 10.0 | 0.00 | 0.00 | 0.00 | 79 | 1010.8 |
| 20260507220227 | 49 | 228 | 4.0 | 10.0 | 0.00 | 0.00 | 0.00 | 79 | 1010.8 |
| 20260507215705 | 49 | 225 | 4.0 | 10.0 | 0.00 | 0.00 | 0.00 | 79 | 1010.8 |
| 20260507215206 | 49 | 199 | 5.0 | 10.0 | 0.00 | 0.00 | 0.00 | 79 | 1010.8 |
| 20260507214205 | 49 | 225 | 4.0 | 11.0 | 0.00 | 0.00 | 0.00 | 78 | 1010.8 |
| 20260507213704 | 49 | 234 | 5.0 | 11.0 | 0.00 | 0.00 | 0.00 | 78 | 1010.8 |
| 20260507212705 | 49 | 167 | 5.0 | 14.0 | 0.00 | 0.00 | 0.00 | 77 | 1010.8 |
| 20260507212205 | 49 | 204 | 4.0 | 10.0 | 0.00 | 0.00 | 0.00 | 77 | 1010.8 |
| 20260507211705 | 50 | 204 | 4.0 | 9.0 | 0.00 | 0.00 | 0.00 | 77 | 1010.9 |
| 20260507211205 | 50 | 215 | 4.0 | 9.0 | 0.00 | 0.00 | 0.00 | 77 | 1010.9 |
| 20260507210705 | 50 | 223 | 4.0 | 11.0 | 0.00 | 0.00 | 0.00 | 76 | 1010.9 |
| 20260507210207 | 50 | 197 | 5.0 | 11.0 | 0.00 | 0.00 | 0.00 | 76 | 1010.8 |
| 20260507205705 | 50 | 215 | 5.0 | 13.0 | 0.00 | 0.00 | 0.00 | 76 | 1010.8 |
| 20260507205205 | 51 | 221 | 5.0 | 15.0 | 0.00 | 0.00 | 0.00 | 75 | 1010.8 |
| 20260507204705 | 51 | 198 | 5.0 | 15.0 | 0.00 | 0.00 | 0.00 | 75 | 1010.8 |
| 20260507204205 | 51 | 212 | 5.0 | 13.0 | 0.00 | 0.00 | 0.00 | 75 | 1010.8 |
| 20260507203706 | 51 | 212 | 6.0 | 13.0 | 0.00 | 0.00 | 0.00 | 75 | 1010.7 |
| 20260507203212 | 51 | 204 | 7.0 | 13.0 | 0.00 | 0.00 | 0.00 | 74 | 1010.7 |
| 20260507202705 | 51 | 196 | 6.0 | 15.0 | 0.00 | 0.00 | 0.00 | 74 | 1010.7 |
| 20260507202206 | 52 | 221 | 6.0 | 18.0 | 0.00 | 0.00 | 0.00 | 74 | 1010.6 |
| 20260507201705 | 52 | 148 | 8.0 | 18.0 | 0.00 | 0.00 | 0.00 | 74 | 1010.5 |
| 20260507201205 | 52 | 212 | 9.0 | 18.0 | 0.00 | 0.00 | 0.00 | 73 | 1010.4 |
| 20260507200705 | 52 | 184 | 9.0 | 17.0 | 0.00 | 0.00 | 0.00 | 73 | 1010.3 |
| 20260507200205 | 52 | 240 | 9.0 | 17.0 | 0.00 | 0.00 | 0.00 | 73 | 1010.2 |
| 20260507195705 | 52 | 215 | 9.0 | 17.0 | 0.00 | 0.00 | 0.00 | 72 | 1010.2 |
| 20260507195206 | 52 | 199 | 9.0 | 17.0 | 0.00 | 0.00 | 0.00 | 72 | 1010.2 |
| 20260507194205 | 52 | 194 | 7.0 | 15.0 | 0.00 | 0.00 | 0.00 | 71 | 1010.1 |
| 20260507193705 | 53 | 223 | 6.0 | 15.0 | 0.00 | 0.00 | 0.00 | 71 | 1010.1 |
| 20260507192206 | 53 | 195 | 8.0 | 16.0 | 0.00 | 0.00 | 0.00 | 71 | 1010.0 |
| 20260507191706 | 53 | 211 | 7.0 | 14.0 | 0.00 | 0.00 | 0.00 | 71 | 1010.0 |
| 20260507191205 | 53 | 173 | 7.0 | 14.0 | 0.00 | 0.00 | 0.00 | 71 | 1010.0 |
| 20260507190705 | 53 | 221 | 7.0 | 14.0 | 0.00 | 0.00 | 0.00 | 71 | 1010.1 |
| 20260507190205 | 53 | 188 | 8.0 | 14.0 | 0.00 | 0.00 | 0.00 | 71 | 1010.1 |
| 20260507185705 | 53 | 175 | 9.0 | 14.0 | 0.00 | 0.00 | 0.00 | 70 | 1010.1 |
| 20260507184705 | 53 | 183 | 8.0 | 17.0 | 0.00 | 0.00 | 0.00 | 69 | 1010.0 |
| 20260507184205 | 53 | 221 | 9.0 | 18.0 | 0.00 | 0.00 | 0.00 | 69 | 1010.0 |
| 20260507183705 | 53 | 252 | 10.0 | 18.0 | 0.00 | 0.00 | 0.00 | 68 | 1009.9 |
| 20260507183206 | 54 | 190 | 9.0 | 18.0 | 0.00 | 0.00 | 0.00 | 69 | 1010.0 |
| 20260507182705 | 54 | 181 | 9.0 | 16.0 | 0.00 | 0.00 | 0.00 | 68 | 1010.0 |
| 20260507182206 | 54 | 209 | 9.0 | 17.0 | 0.00 | 0.00 | 0.00 | 68 | 1009.9 |
| 20260507181704 | 54 | 223 | 8.0 | 18.0 | 0.00 | 0.00 | 0.00 | 69 | 1009.9 |
| 20260507181206 | 54 | 168 | 9.0 | 20.0 | 0.00 | 0.00 | 0.00 | 69 | 1009.9 |
| 20260507180705 | 54 | 194 | 9.0 | 20.0 | 0.00 | 0.00 | 0.00 | 69 | 1009.9 |
| 20260507180205 | 54 | 213 | 10.0 | 20.0 | 0.00 | 0.00 | 0.00 | 69 | 1009.8 |
| 20260507175706 | 54 | 196 | 9.0 | 18.0 | 0.00 | 0.00 | 0.00 | 69 | 1009.8 |
| 20260507175205 | 53 | 208 | 6.0 | 13.0 | 0.00 | 0.00 | 0.00 | 70 | 1009.8 |
| 20260507173707 | 53 | 194 | 4.0 | 9.0 | 0.00 | 0.00 | 0.00 | 73 | 1009.9 |
| 20260507172705 | 53 | 195 | 3.0 | 10.0 | 0.00 | 0.00 | 0.00 | 73 | 1009.9 |
| 20260507171707 | 53 | 198 | 5.0 | 10.0 | 0.00 | 0.00 | 0.00 | 73 | 1009.9 |
| 20260507171205 | 53 | 199 | 4.0 | 9.0 | 0.00 | 0.00 | 0.00 | 73 | 1009.9 |
| 20260507170206 | 53 | 211 | 3.0 | 7.0 | 0.00 | 0.00 | 0.00 | 74 | 1009.9 |
| 20260507165206 | 53 | 199 | 3.0 | 6.0 | 0.00 | 0.00 | 0.00 | 75 | 1010.0 |
| 20260507164705 | 53 | 213 | 2.0 | 6.0 | 0.00 | 0.00 | 0.00 | 74 | 1010.1 |
| 20260507164205 | 53 | 190 | 1.0 | 3.0 | 0.00 | 0.00 | 0.00 | 75 | 1010.1 |
| 20260507163705 | 53 | 227 | 1.0 | 5.0 | 0.00 | 0.00 | 0.00 | 75 | 1010.2 |
| 20260507163205 | 53 | 222 | 1.0 | 5.0 | 0.00 | 0.00 | 0.00 | 75 | 1010.2 |
| 20260507162705 | 53 | 232 | 2.0 | 6.0 | 0.00 | 0.00 | 0.00 | 75 | 1010.2 |
| 20260507162206 | 52 | 207 | 3.0 | 6.0 | 0.00 | 0.00 | 0.00 | 74 | 1010.2 |
| 20260507161708 | 53 | 200 | 3.0 | 8.0 | 0.00 | 0.00 | 0.00 | 75 | 1010.2 |
| 20260507161205 | 53 | 227 | 4.0 | 9.0 | 0.00 | 0.00 | 0.00 | 75 | 1010.3 |
| 20260507160705 | 53 | 264 | 4.0 | 9.0 | 0.00 | 0.00 | 0.00 | 76 | 1010.2 |
| 20260507160206 | 52 | 288 | 4.0 | 9.0 | 0.00 | 0.00 | 0.00 | 76 | 1010.3 |
| 20260507155706 | 52 | 226 | 3.0 | 8.0 | 0.00 | 0.00 | 0.00 | 76 | 1010.4 |
| 20260507155206 | 52 | 257 | 4.0 | 8.0 | 0.00 | 0.00 | 0.00 | 75 | 1010.4 |
| 20260507154705 | 52 | 261 | 4.0 | 10.0 | 0.00 | 0.00 | 0.00 | 75 | 1010.4 |
| 20260507153206 | 52 | 258 | 6.0 | 13.0 | 0.00 | 0.00 | 0.00 | 74 | 1010.4 |
| 20260507152706 | 52 | 231 | 7.0 | 13.0 | 0.00 | 0.00 | 0.00 | 72 | 1010.5 |
| 20260507151205 | 54 | 225 | 9.0 | 19.0 | 0.00 | 0.00 | 0.00 | 67 | 1010.5 |
| 20260507150205 | 55 | 202 | 9.0 | 18.0 | 0.00 | 0.00 | 0.00 | 67 | 1010.3 |
| 20260507145704 | 55 | 180 | 9.0 | 18.0 | 0.00 | 0.00 | 0.00 | 67 | 1010.3 |
| 20260507145207 | 55 | 205 | 9.0 | 20.0 | 0.00 | 0.00 | 0.00 | 67 | 1010.4 |
| 20260507144705 | 55 | 167 | 8.0 | 20.0 | 0.00 | 0.00 | 0.00 | 67 | 1010.6 |
| 20260507144205 | 55 | 207 | 7.0 | 20.0 | 0.00 | 0.00 | 0.00 | 67 | 1010.5 |
| 20260507143705 | 55 | 213 | 7.0 | 21.0 | 0.00 | 0.00 | 0.00 | 68 | 1010.5 |
| 20260507143205 | 55 | 181 | 8.0 | 21.0 | 0.00 | 0.00 | 0.00 | 67 | 1010.6 |
| 20260507142205 | 55 | 210 | 8.0 | 19.0 | 0.00 | 0.00 | 0.00 | 67 | 1010.6 |
| 20260507141705 | 55 | 113 | 6.0 | 14.0 | 0.00 | 0.00 | 0.00 | 68 | 1010.6 |
| 20260507140705 | 55 | 173 | 8.0 | 17.0 | 0.00 | 0.00 | 0.00 | 67 | 1010.7 |
| 20260507140205 | 56 | 217 | 8.0 | 17.0 | 0.00 | 0.00 | 0.00 | 67 | 1010.7 |
| 20260507135705 | 56 | 205 | 8.0 | 15.0 | 0.00 | 0.00 | 0.00 | 69 | 1010.7 |
| 20260507135206 | 56 | 191 | 8.0 | 17.0 | 0.00 | 0.00 | 0.00 | 68 | 1010.7 |
| 20260507134705 | 56 | 178 | 8.0 | 17.0 | 0.00 | 0.00 | 0.00 | 69 | 1010.8 |
| 20260507134205 | 56 | 237 | 7.0 | 15.0 | 0.00 | 0.00 | 0.00 | 68 | 1010.9 |
| 20260507133734 | 56 | 235 | 6.0 | 18.0 | 0.00 | 0.00 | 0.00 | 70 | 1010.8 |
| 20260507133205 | 56 | 233 | 7.0 | 19.0 | 0.00 | 0.00 | 0.00 | 69 | 1010.8 |
| 20260507132706 | 55 | 217 | 9.0 | 19.0 | 0.00 | 0.00 | 0.00 | 69 | 1010.8 |
| 20260507132206 | 55 | 171 | 10.0 | 19.0 | 0.00 | 0.00 | 0.00 | 69 | 1010.9 |
| 20260507131705 | 55 | 204 | 10.0 | 19.0 | 0.00 | 0.00 | 0.00 | 68 | 1010.8 |
| 20260507131206 | 55 | 167 | 9.0 | 19.0 | 0.00 | 0.00 | 0.00 | 69 | 1010.8 |
| 20260507130705 | 55 | 167 | 8.0 | 19.0 | 0.00 | 0.00 | 0.00 | 70 | 1011.0 |
| 20260507130205 | 54 | 211 | 8.0 | 17.0 | 0.00 | 0.00 | 0.00 | 71 | 1010.9 |
| 20260507125206 | 54 | 194 | 7.0 | 15.0 | 0.00 | 0.00 | 0.00 | 72 | 1011.0 |
| 20260507124707 | 54 | 161 | 6.0 | 12.0 | 0.00 | 0.00 | 0.00 | 71 | 1011.1 |
| 20260507124208 | 54 | 207 | 5.0 | 11.0 | 0.00 | 0.00 | 0.00 | 72 | 1011.1 |
| 20260507123205 | 53 | 202 | 5.0 | 13.0 | 0.00 | 0.00 | 0.00 | 72 | 1011.2 |
| 20260507122205 | 52 | 186 | 6.0 | 12.0 | 0.00 | 0.00 | 0.00 | 73 | 1011.2 |
| 20260507121205 | 52 | 171 | 4.0 | 12.0 | 0.00 | 0.00 | 0.00 | 72 | 1011.4 |
| 20260507120705 | 52 | 185 | 5.0 | 12.0 | 0.00 | 0.00 | 0.00 | 74 | 1011.4 |
| 20260507115705 | 51 | 192 | 6.0 | 12.0 | 0.00 | 0.00 | 0.00 | 76 | 1011.4 |
| 20260507115206 | 50 | 227 | 7.0 | 12.0 | 0.00 | 0.00 | 0.00 | 75 | 1011.4 |
| 20260507114705 | 50 | 200 | 6.0 | 11.0 | 0.00 | 0.00 | 0.00 | 76 | 1011.4 |
| 20260507114205 | 50 | 239 | 5.0 | 11.0 | 0.00 | 0.00 | 0.00 | 76 | 1011.5 |
| 20260507113205 | 49 | 209 | 5.0 | 12.0 | 0.00 | 0.00 | 0.00 | 76 | 1011.5 |
| 20260507112706 | 49 | 182 | 5.0 | 12.0 | 0.00 | 0.00 | 0.00 | 76 | 1011.5 |
| 20260507112206 | 49 | 201 | 5.0 | 18.0 | 0.00 | 0.00 | 0.00 | 76 | 1011.5 |
| 20260507111705 | 49 | 224 | 7.0 | 18.0 | 0.00 | 0.00 | 0.00 | 76 | 1011.5 |
| 20260507111221 | 49 | 198 | 7.0 | 16.0 | 0.00 | 0.00 | 0.00 | 75 | 1011.5 |
| 20260507110705 | 50 | 201 | 6.0 | 14.0 | 0.00 | 0.00 | 0.00 | 74 | 1011.5 |
| 20260507110257 | 50 | 217 | 6.0 | 13.0 | 0.00 | 0.00 | 0.00 | 74 | 1011.6 |
| 20260507105705 | 50 | 196 | 6.0 | 13.0 | 0.00 | 0.00 | 0.00 | 74 | 1011.5 |
| 20260507105205 | 50 | 216 | 6.0 | 14.0 | 0.00 | 0.00 | 0.00 | 73 | 1011.5 |
| 20260507104705 | 50 | 197 | 6.0 | 14.0 | 0.00 | 0.00 | 0.00 | 72 | 1011.5 |
| 20260507104205 | 50 | 184 | 7.0 | 14.0 | 0.00 | 0.00 | 0.00 | 72 | 1011.6 |
| 20260507103707 | 51 | 205 | 7.0 | 14.0 | 0.00 | 0.00 | 0.00 | 72 | 1011.7 |
| 20260507103205 | 51 | 197 | 5.0 | 12.0 | 0.00 | 0.00 | 0.00 | 73 | 1011.6 |
| 20260507102705 | 51 | 213 | 5.0 | 12.0 | 0.00 | 0.00 | 0.00 | 74 | 1011.6 |
| 20260507102206 | 51 | 196 | 6.0 | 14.0 | 0.00 | 0.00 | 0.00 | 73 | 1011.5 |
| 20260507101705 | 51 | 214 | 7.0 | 14.0 | 0.00 | 0.00 | 0.00 | 73 | 1011.5 |
| 20260507101205 | 51 | 194 | 7.0 | 15.0 | 0.00 | 0.00 | 0.00 | 72 | 1011.5 |
| 20260507100705 | 52 | 184 | 7.0 | 15.0 | 0.00 | 0.00 | 0.00 | 72 | 1011.4 |
| 20260507100205 | 52 | 211 | 7.0 | 15.0 | 0.00 | 0.00 | 0.00 | 72 | 1011.3 |
| 20260507095705 | 52 | 223 | 7.0 | 18.0 | 0.00 | 0.00 | 0.00 | 73 | 1011.4 |
| 20260507095205 | 52 | 214 | 8.0 | 18.0 | 0.00 | 0.00 | 0.00 | 71 | 1011.4 |
| 20260507094706 | 52 | 159 | 8.0 | 18.0 | 0.00 | 0.00 | 0.00 | 71 | 1011.3 |
| 20260507094205 | 53 | 176 | 6.0 | 15.0 | 0.00 | 0.00 | 0.00 | 71 | 1011.4 |
| 20260507093705 | 53 | 216 | 5.0 | 9.0 | 0.00 | 0.00 | 0.00 | 72 | 1011.3 |
| 20260507093205 | 53 | 225 | 4.0 | 9.0 | 0.00 | 0.00 | 0.00 | 70 | 1011.3 |
| 20260507092705 | 52 | 184 | 4.0 | 9.0 | 0.00 | 0.00 | 0.00 | 73 | 1011.2 |
| 20260507092206 | 52 | 156 | 4.0 | 8.0 | 0.00 | 0.00 | 0.00 | 70 | 1011.2 |
| 20260507091705 | 52 | 211 | 3.0 | 9.0 | 0.00 | 0.00 | 0.00 | 72 | 1011.2 |
| 20260507091205 | 52 | 126 | 4.0 | 9.0 | 0.00 | 0.00 | 0.00 | 72 | 1011.2 |
| 20260507090731 | 51 | 234 | 3.0 | 8.0 | 0.00 | 0.00 | 0.00 | 71 | 1011.3 |
| 20260507090205 | 51 | 167 | 3.0 | 8.0 | 0.00 | 0.00 | 0.00 | 70 | 1011.3 |
| 20260507085205 | 52 | 127 | 3.0 | 10.0 | 0.00 | 0.00 | 0.00 | 70 | 1011.4 |
| 20260507084706 | 52 | 185 | 4.0 | 10.0 | 0.00 | 0.00 | 0.00 | 70 | 1011.4 |
| 20260507084206 | 52 | 188 | 5.0 | 10.0 | 0.00 | 0.00 | 0.00 | 70 | 1011.4 |
| 20260507083205 | 52 | 113 | 3.0 | 9.0 | 0.00 | 0.00 | 0.00 | 70 | 1011.4 |
| 20260507082705 | 52 | 219 | 3.0 | 10.0 | 0.00 | 0.00 | 0.00 | 71 | 1011.4 |
| 20260507081706 | 51 | 209 | 6.0 | 10.0 | 0.00 | 0.00 | 0.00 | 70 | 1011.5 |
| 20260507081205 | 52 | 215 | 5.0 | 10.0 | 0.00 | 0.00 | 0.00 | 69 | 1011.5 |
| 20260507080704 | 52 | 161 | 4.0 | 9.0 | 0.00 | 0.00 | 0.00 | 68 | 1011.4 |
| 20260507080205 | 53 | 168 | 3.0 | 9.0 | 0.00 | 0.00 | 0.00 | 68 | 1011.4 |
| 20260507075705 | 52 | 119 | 3.0 | 11.0 | 0.00 | 0.00 | 0.00 | 68 | 1011.5 |
| 20260507075206 | 52 | 108 | 4.0 | 11.0 | 0.00 | 0.00 | 0.00 | 72 | 1011.5 |
| 20260507074706 | 51 | 172 | 4.0 | 11.0 | 0.00 | 0.00 | 0.00 | 69 | 1011.4 |
| 20260507074205 | 52 | 159 | 3.0 | 8.0 | 0.00 | 0.00 | 0.00 | 70 | 1011.4 |
| 20260507072705 | 50 | 207 | 3.0 | 9.0 | 0.00 | 0.00 | 0.00 | 72 | 1011.5 |
| 20260507072206 | 50 | 169 | 3.0 | 8.0 | 0.00 | 0.00 | 0.00 | 73 | 1011.5 |
| 20260507071705 | 49 | 230 | 3.0 | 8.0 | 0.00 | 0.00 | 0.00 | 72 | 1011.5 |
| 20260507070705 | 50 | 241 | 3.0 | 9.0 | 0.00 | 0.00 | 0.00 | 72 | 1011.5 |
| 20260507070205 | 50 | 229 | 4.0 | 9.0 | 0.00 | 0.00 | 0.00 | 73 | 1011.5 |
| 20260507065705 | 50 | 147 | 5.0 | 9.0 | 0.00 | 0.00 | 0.00 | 72 | 1011.5 |
| 20260507065205 | 49 | 181 | 2.0 | 7.0 | 0.00 | 0.00 | 0.00 | 74 | 1011.5 |
| 20260507064706 | 49 | 210 | 1.0 | 3.0 | 0.00 | 0.00 | 0.00 | 78 | 1011.6 |
| 20260507064205 | 47 | 205 | 1.0 | 3.0 | 0.00 | 0.00 | 0.00 | 79 | 1011.6 |
| 20260507063707 | 46 | 225 | 1.0 | 4.0 | 0.00 | 0.00 | 0.00 | 81 | 1011.6 |
| 20260507062706 | 44 | 202 | 2.0 | 4.0 | 0.00 | 0.00 | 0.00 | 83 | 1011.6 |
| 20260507061706 | 43 | 180 | 2.0 | 4.0 | 0.00 | 0.00 | 0.00 | 85 | 1011.6 |
| 20260507061205 | 43 | 201 | 1.0 | 2.0 | 0.00 | 0.00 | 0.00 | 85 | 1011.6 |
| 20260507060722 | 43 | 285 | 0.0 | 1.0 | 0.00 | 0.00 | 0.00 | 85 | 1011.7 |